AAL901 KDFW-KMIA

Flight info

Callsign AAL901
Flight time N/A
Altitude 37000
Route MRSSH3 ZALEA HRV Q105 BLVNS Y290 DOWRY FROGZ5
Aircraft MD11/H-SDE1E2E3FGHIJ2J3J4J5M1RWXY/LB1D1

Departure

Time 2026-05-04 16:12
Airport Dallas Fort Worth International Airport (KDFW)

Arrival

Time N/A
Airport Miami International Airport (KMIA)
Time Latitude Longitude Altitude Speed Heading
2026-05-04 16:12 32.68353 -96.90389 13395 ft 404 kts 84°
2026-05-04 16:12 32.68958 -96.80181 15772 ft 425 kts 85°
2026-05-04 16:13 32.69165 -96.73054 17325 ft 437 kts 86°
2026-05-04 16:13 32.69286 -96.65742 18771 ft 448 kts 87°
2026-05-04 16:14 32.69388 -96.58254 20025 ft 459 kts 87°
2026-05-04 16:14 32.69489 -96.50595 21254 ft 468 kts 86°
2026-05-04 16:15 32.69642 -96.38821 23103 ft 483 kts 86°
2026-05-04 16:16 32.69572 -96.30758 24199 ft 495 kts 90°
2026-05-04 16:16 32.68751 -96.18372 25729 ft 513 kts 92°
2026-05-04 16:17 32.68143 -96.09839 26783 ft 524 kts 91°
2026-05-04 16:18 32.67257 -95.96737 28429 ft 539 kts 91°
2026-05-04 16:18 32.66958 -95.92280 28934 ft 544 kts 90°
2026-05-04 16:19 32.66022 -95.78668 30500 ft 557 kts 90°
2026-05-04 16:19 32.65373 -95.69481 31578 ft 560 kts 90°
2026-05-04 16:20 32.64507 -95.57170 32914 ft 565 kts 89°
2026-05-04 16:20 32.63850 -95.47874 33833 ft 569 kts 89°
2026-05-04 16:21 32.62839 -95.33841 35262 ft 566 kts 89°
2026-05-04 16:22 32.62159 -95.24529 36082 ft 565 kts 88°
2026-05-04 16:22 32.61137 -95.10685 36996 ft 560 kts 88°
2026-05-04 16:23 32.60106 -94.96807 37043 ft 568 kts 88°
2026-05-04 16:25 32.56339 -94.68921 37044 ft 583 kts 105°